owner,sensor,date,latitude,longitude,vertical_datum,wind_speed,wind_to_direction,wind_speed_of_gust,qcFlag 
NDBC,ioos:station:NOAA.NDBC:BURL1:1,2017-05-09T21:00:00Z,28.9060,-89.4290,30.5,2.1,100.0,2.6,'1111122,1111122,1111122' 
NDBC,ioos:station:NOAA.NDBC:BURL1:1,2017-05-09T22:00:00Z,28.9060,-89.4290,30.5,4.1,100.0,4.6,'1111122,1111122,1111122' 
NDBC,ioos:station:NOAA.NDBC:BURL1:1,2017-05-09T23:00:00Z,28.9060,-89.4290,30.5,3.6,120.0,4.1,'1111122,1111122,1111122' 
NDBC,ioos:station:NOAA.NDBC:BURL1:1,2017-05-10T00:00:00Z,28.9060,-89.4290,30.5,3.1,130.0,3.6,'1111122,1111122,1111122' 
NDBC,ioos:station:NOAA.NDBC:BURL1:1,2017-05-10T01:00:00Z,28.9060,-89.4290,30.5,2.6,120.0,3.1,'1111122,1111122,1111122' 
NDBC,ioos:station:NOAA.NDBC:BURL1:1,2017-05-10T02:00:00Z,28.9060,-89.4290,30.5,3.1,150.0,3.1,'1111122,1111122,1111122' 
NDBC,ioos:station:NOAA.NDBC:BURL1:1,2017-05-10T03:00:00Z,28.9060,-89.4290,30.5,4.6,140.0,4.6,'1111122,1111122,1111122' 
NDBC,ioos:station:NOAA.NDBC:BURL1:1,2017-05-10T04:00:00Z,28.9060,-89.4290,30.5,4.6,150.0,5.1,'1111122,1111122,1111122' 
NDBC,ioos:station:NOAA.NDBC:BURL1:1,2017-05-10T05:00:00Z,28.9060,-89.4290,30.5,5.1,160.0,5.1,'1111122,1111122,1111122' 
NDBC,ioos:station:NOAA.NDBC:BURL1:1,2017-05-10T06:00:00Z,28.9060,-89.4290,30.5,4.1,150.0,4.6,'1111122,1111122,1111122' 
NDBC,ioos:station:NOAA.NDBC:BURL1:1,2017-05-10T07:00:00Z,28.9060,-89.4290,30.5,4.1,160.0,4.6,'1111122,1111122,1111122' 
NDBC,ioos:station:NOAA.NDBC:BURL1:1,2017-05-10T08:00:00Z,28.9060,-89.4290,30.5,4.6,170.0,5.1,'1111122,1111122,1111122' 
NDBC,ioos:station:NOAA.NDBC:BURL1:1,2017-05-10T09:00:00Z,28.9060,-89.4290,30.5,4.6,170.0,5.1,'1111122,1111122,1111122' 
NDBC,ioos:station:NOAA.NDBC:BURL1:1,2017-05-10T10:00:00Z,28.9060,-89.4290,30.5,3.1,180.0,3.6,'1111122,1111122,1111122' 
NDBC,ioos:station:NOAA.NDBC:BURL1:1,2017-05-10T11:00:00Z,28.9060,-89.4290,30.5,3.1,170.0,3.1,'1111122,1111122,1111122' 
NDBC,ioos:station:NOAA.NDBC:BURL1:1,2017-05-10T12:00:00Z,28.9060,-89.4290,30.5,2.1,160.0,2.6,'1111122,1111122,1111122' 
NDBC,ioos:station:NOAA.NDBC:BURL1:1,2017-05-10T13:00:00Z,28.9060,-89.4290,30.5,2.1,130.0,2.6,'1111122,1111122,1111122' 
NDBC,ioos:station:NOAA.NDBC:BURL1:1,2017-05-10T14:00:00Z,28.9060,-89.4290,30.5,2.6,140.0,3.1,'1111122,1111122,1111122' 
NDBC,ioos:station:NOAA.NDBC:BURL1:1,2017-05-10T16:00:00Z,28.9060,-89.4290,30.5,2.6,140.0,3.1,'1111122,1111122,1111122' 
NDBC,ioos:station:NOAA.NDBC:BURL1:1,2017-05-10T17:00:00Z,28.9060,-89.4290,30.5,3.6,120.0,4.1,'1111122,1111122,1111122' 
NDBC,ioos:station:NOAA.NDBC:BURL1:1,2017-05-10T19:00:00Z,28.9060,-89.4290,30.5,4.1,140.0,4.6,'1111122,1111122,1111122' 
NDBC,ioos:station:NOAA.NDBC:BURL1:1,2017-05-10T20:00:00Z,28.9060,-89.4290,30.5,4.1,140.0,4.6,'1111122,1111122,1111122' 
NDBC,ioos:station:NOAA.NDBC:BURL1:1,2017-05-10T21:00:00Z,28.9060,-89.4290,30.5,4.6,140.0,5.1,'1111122,1111122,1111122' 
NDBC,ioos:station:NOAA.NDBC:BURL1:1,2017-05-10T22:00:00Z,28.9060,-89.4290,30.5,3.6,160.0,4.6,'1111122,1111122,1111122' 
NDBC,ioos:station:NOAA.NDBC:BURL1:1,2017-05-10T23:00:00Z,28.9060,-89.4290,30.5,2.6,170.0,3.1,'1111122,1111122,1111122' 
NDBC,ioos:station:NOAA.NDBC:BURL1:1,2017-05-11T00:00:00Z,28.9060,-89.4290,30.5,3.6,160.0,4.1,'1111122,1111122,1111122' 
NDBC,ioos:station:NOAA.NDBC:BURL1:1,2017-05-11T01:00:00Z,28.9060,-89.4290,30.5,4.1,160.0,4.6,'1111122,1111122,1111122' 
NDBC,ioos:station:NOAA.NDBC:BURL1:1,2017-05-11T02:00:00Z,28.9060,-89.4290,30.5,4.6,160.0,5.1,'1111122,1111122,1111122' 
NDBC,ioos:station:NOAA.NDBC:BURL1:1,2017-05-11T03:00:00Z,28.9060,-89.4290,30.5,5.1,160.0,5.7,'1111122,1111122,1111122' 
NDBC,ioos:station:NOAA.NDBC:BURL1:1,2017-05-11T04:00:00Z,28.9060,-89.4290,30.5,5.1,160.0,5.1,'1111122,1111122,1111122' 
NDBC,ioos:station:NOAA.NDBC:BURL1:1,2017-05-11T05:00:00Z,28.9060,-89.4290,30.5,5.1,160.0,5.7,'1111122,1111122,1111122' 
NDBC,ioos:station:NOAA.NDBC:BURL1:1,2017-05-11T06:00:00Z,28.9060,-89.4290,30.5,5.7,160.0,6.2,'1111122,1111122,1111122' 
NDBC,ioos:station:NOAA.NDBC:BURL1:1,2017-05-11T07:00:00Z,28.9060,-89.4290,30.5,5.1,170.0,5.7,'1111122,1111122,1111122' 
NDBC,ioos:station:NOAA.NDBC:BURL1:1,2017-05-11T08:00:00Z,28.9060,-89.4290,30.5,6.2,170.0,6.7,'1111122,1111122,1111122' 
NDBC,ioos:station:NOAA.NDBC:BURL1:1,2017-05-11T09:00:00Z,28.9060,-89.4290,30.5,6.7,180.0,6.7,'1111122,1111122,1111122' 
NDBC,ioos:station:NOAA.NDBC:BURL1:1,2017-05-11T10:00:00Z,28.9060,-89.4290,30.5,5.1,190.0,5.7,'1111122,1111122,1111122' 
NDBC,ioos:station:NOAA.NDBC:BURL1:1,2017-05-11T11:00:00Z,28.9060,-89.4290,30.5,5.1,180.0,5.1,'1111122,1111122,1111122' 
NDBC,ioos:station:NOAA.NDBC:BURL1:1,2017-05-11T12:00:00Z,28.9060,-89.4290,30.5,4.6,190.0,5.1,'1111122,1111122,1111122' 
NDBC,ioos:station:NOAA.NDBC:BURL1:1,2017-05-11T13:00:00Z,28.9060,-89.4290,30.5,5.7,170.0,5.7,'1111122,1111122,1111122' 
NDBC,ioos:station:NOAA.NDBC:BURL1:1,2017-05-11T15:00:00Z,28.9060,-89.4290,30.5,3.6,190.0,3.6,'1111122,1111122,1111122' 
NDBC,ioos:station:NOAA.NDBC:BURL1:1,2017-05-11T17:00:00Z,28.9060,-89.4290,30.5,1.0,220.0,1.0,'1111122,1111122,1111122' 
NDBC,ioos:station:NOAA.NDBC:BURL1:1,2017-05-11T18:00:00Z,28.9060,-89.4290,30.5,2.1,210.0,2.1,'1111122,1111122,1111122' 
NDBC,ioos:station:NOAA.NDBC:BURL1:1,2017-05-11T19:00:00Z,28.9060,-89.4290,30.5,2.1,190.0,2.1,'1111122,1111122,1111122' 
NDBC,ioos:station:NOAA.NDBC:BURL1:1,2017-05-11T20:00:00Z,28.9060,-89.4290,30.5,3.1,190.0,3.1,'1111122,1111122,1111122' 
NDBC,ioos:station:NOAA.NDBC:BURL1:1,2017-05-11T21:00:00Z,28.9060,-89.4290,30.5,2.6,190.0,2.6,'1111122,1111122,1111122' 
NDBC,ioos:station:NOAA.NDBC:BURL1:1,2017-05-11T22:00:00Z,28.9060,-89.4290,30.5,2.6,170.0,3.1,'1111122,1111122,1111122' 
NDBC,ioos:station:NOAA.NDBC:BURL1:1,2017-05-11T23:00:00Z,28.9060,-89.4290,30.5,3.6,180.0,3.6,'1111122,1111122,1111122' 
NDBC,ioos:station:NOAA.NDBC:BURL1:1,2017-05-12T00:00:00Z,28.9060,-89.4290,30.5,3.6,160.0,4.1,'1111122,1111122,1111122' 
NDBC,ioos:station:NOAA.NDBC:BURL1:1,2017-05-12T01:00:00Z,28.9060,-89.4290,30.5,4.6,170.0,5.1,'1111122,1111122,1111122' 
NDBC,ioos:station:NOAA.NDBC:BURL1:1,2017-05-12T02:00:00Z,28.9060,-89.4290,30.5,5.7,160.0,6.2,'1111122,1111122,1111122' 
NDBC,ioos:station:NOAA.NDBC:BURL1:1,2017-05-12T03:00:00Z,28.9060,-89.4290,30.5,6.2,170.0,6.7,'1111122,1111122,1111122' 
NDBC,ioos:station:NOAA.NDBC:BURL1:1,2017-05-12T04:00:00Z,28.9060,-89.4290,30.5,5.7,190.0,6.2,'1111122,1111122,1111122' 
NDBC,ioos:station:NOAA.NDBC:BURL1:1,2017-05-12T05:00:00Z,28.9060,-89.4290,30.5,6.7,200.0,7.2,'1111122,1111122,1111122' 
NDBC,ioos:station:NOAA.NDBC:BURL1:1,2017-05-12T06:00:00Z,28.9060,-89.4290,30.5,6.7,200.0,6.7,'1111122,1111122,1111122' 
NDBC,ioos:station:NOAA.NDBC:BURL1:1,2017-05-12T07:00:00Z,28.9060,-89.4290,30.5,7.7,200.0,7.7,'1111122,1111122,1111122' 
NDBC,ioos:station:NOAA.NDBC:BURL1:1,2017-05-12T08:00:00Z,28.9060,-89.4290,30.5,7.2,200.0,7.2,'1111122,1111122,1111122' 
NDBC,ioos:station:NOAA.NDBC:BURL1:1,2017-05-12T09:00:00Z,28.9060,-89.4290,30.5,5.1,210.0,5.1,'1111122,1111122,1111122' 
NDBC,ioos:station:NOAA.NDBC:BURL1:1,2017-05-12T10:00:00Z,28.9060,-89.4290,30.5,5.7,210.0,5.7,'1111122,1111122,1111122' 
NDBC,ioos:station:NOAA.NDBC:BURL1:1,2017-05-12T11:00:00Z,28.9060,-89.4290,30.5,5.7,220.0,6.2,'1111122,1111122,1111122' 
NDBC,ioos:station:NOAA.NDBC:BURL1:1,2017-05-12T12:00:00Z,28.9060,-89.4290,30.5,5.7,210.0,6.2,'1111122,1111122,1111122' 
NDBC,ioos:station:NOAA.NDBC:BURL1:1,2017-05-12T13:00:00Z,28.9060,-89.4290,30.5,6.2,210.0,7.2,'1111122,1111122,1111122' 
NDBC,ioos:station:NOAA.NDBC:BURL1:1,2017-05-12T14:00:00Z,28.9060,-89.4290,30.5,7.2,200.0,7.2,'1111122,1111122,1111122' 
NDBC,ioos:station:NOAA.NDBC:BURL1:1,2017-05-12T15:00:00Z,28.9060,-89.4290,30.5,8.8,190.0,9.8,'1111122,1111122,1111122' 
NDBC,ioos:station:NOAA.NDBC:BURL1:1,2017-05-12T16:00:00Z,28.9060,-89.4290,30.5,10.3,180.0,11.3,'1111122,1111122,1111122' 
NDBC,ioos:station:NOAA.NDBC:BURL1:1,2017-05-12T17:00:00Z,28.9060,-89.4290,30.5,10.3,200.0,11.8,'1111122,1111122,1111122' 
NDBC,ioos:station:NOAA.NDBC:BURL1:1,2017-05-12T18:00:00Z,28.9060,-89.4290,30.5,11.3,210.0,11.8,'1111122,1111122,1111122' 
NDBC,ioos:station:NOAA.NDBC:BURL1:1,2017-05-12T19:00:00Z,28.9060,-89.4290,30.5,9.8,220.0,10.3,'1111122,1111122,1111122' 
NDBC,ioos:station:NOAA.NDBC:BURL1:1,2017-05-12T20:00:00Z,28.9060,-89.4290,30.5,9.3,220.0,10.3,'1111122,1111122,1111122' 
NDBC,ioos:station:NOAA.NDBC:BURL1:1,2017-05-12T21:00:00Z,28.9060,-89.4290,30.5,8.2,210.0,8.8,'1111122,1111122,1111122' 
NDBC,ioos:station:NOAA.NDBC:BURL1:1,2017-05-12T22:00:00Z,28.9060,-89.4290,30.5,9.8,190.0,10.8,'1111122,1111122,1111122' 
NDBC,ioos:station:NOAA.NDBC:BURL1:1,2017-05-14T14:00:00Z,28.9060,-89.4290,30.5,4.1,360.0,4.6,'1111122,1111122,1111122' 
NDBC,ioos:station:NOAA.NDBC:BURL1:1,2017-05-14T15:00:00Z,28.9060,-89.4290,30.5,4.1,10.0,4.1,'1111122,1111122,1111122' 
NDBC,ioos:station:NOAA.NDBC:BURL1:1,2017-05-14T16:00:00Z,28.9060,-89.4290,30.5,3.6,10.0,3.6,'1111122,1111122,1111122' 
NDBC,ioos:station:NOAA.NDBC:BURL1:1,2017-05-14T17:00:00Z,28.9060,-89.4290,30.5,2.6,10.0,3.1,'1111122,1111122,1111122' 
NDBC,ioos:station:NOAA.NDBC:BURL1:1,2017-05-14T18:00:00Z,28.9060,-89.4290,30.5,1.5,50.0,2.1,'1111122,1111122,1111122' 
NDBC,ioos:station:NOAA.NDBC:BURL1:1,2017-05-14T19:00:00Z,28.9060,-89.4290,30.5,1.5,70.0,1.5,'1111122,1111122,1111122' 
NDBC,ioos:station:NOAA.NDBC:BURL1:1,2017-05-14T20:00:00Z,28.9060,-89.4290,30.5,1.0,150.0,1.5,'1111122,1111122,1111122' 
NDBC,ioos:station:NOAA.NDBC:BURL1:1,2017-05-14T21:00:00Z,28.9060,-89.4290,30.5,1.5,170.0,2.1,'1111122,1111122,1111122' 
NDBC,ioos:station:NOAA.NDBC:BURL1:1,2017-05-14T22:00:00Z,28.9060,-89.4290,30.5,1.5,190.0,1.5,'1111122,1111122,1111122' 
NDBC,ioos:station:NOAA.NDBC:BURL1:1,2017-05-15T00:00:00Z,28.9060,-89.4290,30.5,1.5,210.0,1.5,'1111122,1111122,1111122' 
NDBC,ioos:station:NOAA.NDBC:BURL1:1,2017-05-15T01:00:00Z,28.9060,-89.4290,30.5,1.5,210.0,1.5,'1111122,1111122,1111122' 
NDBC,ioos:station:NOAA.NDBC:BURL1:1,2017-05-15T02:00:00Z,28.9060,-89.4290,30.5,1.5,190.0,1.5,'1111122,1111122,1111122' 
NDBC,ioos:station:NOAA.NDBC:BURL1:1,2017-05-15T03:00:00Z,28.9060,-89.4290,30.5,1.0,230.0,1.0,'1111122,1111122,1111122' 
NDBC,ioos:station:NOAA.NDBC:BURL1:1,2017-05-15T04:00:00Z,28.9060,-89.4290,30.5,2.1,220.0,2.1,'1111122,1111122,1111122' 
NDBC,ioos:station:NOAA.NDBC:BURL1:1,2017-05-15T05:00:00Z,28.9060,-89.4290,30.5,1.0,240.0,1.5,'1111122,1111122,1111122' 
NDBC,ioos:station:NOAA.NDBC:BURL1:1,2017-05-15T06:00:00Z,28.9060,-89.4290,30.5,2.1,240.0,2.1,'1111122,1111122,1111122' 
NDBC,ioos:station:NOAA.NDBC:BURL1:1,2017-05-15T07:00:00Z,28.9060,-89.4290,30.5,1.5,270.0,2.6,'1111122,1111122,1111122' 
NDBC,ioos:station:NOAA.NDBC:BURL1:1,2017-05-15T08:00:00Z,28.9060,-89.4290,30.5,1.5,280.0,1.5,'1111122,1111122,1111122' 
NDBC,ioos:station:NOAA.NDBC:BURL1:1,2017-05-15T09:00:00Z,28.9060,-89.4290,30.5,1.5,290.0,2.1,'1111122,1111122,1111122' 
NDBC,ioos:station:NOAA.NDBC:BURL1:1,2017-05-15T10:00:00Z,28.9060,-89.4290,30.5,2.1,270.0,2.1,'1111122,1111122,1111122' 
NDBC,ioos:station:NOAA.NDBC:BURL1:1,2017-05-15T11:00:00Z,28.9060,-89.4290,30.5,2.1,320.0,2.1,'1111122,1111122,1111122' 
NDBC,ioos:station:NOAA.NDBC:BURL1:1,2017-05-15T12:00:00Z,28.9060,-89.4290,30.5,2.1,10.0,2.1,'1111122,1111122,1111122' 
NDBC,ioos:station:NOAA.NDBC:BURL1:1,2017-05-15T13:00:00Z,28.9060,-89.4290,30.5,4.6,50.0,4.6,'1111122,1111122,1111122' 
NDBC,ioos:station:NOAA.NDBC:BURL1:1,2017-05-15T14:00:00Z,28.9060,-89.4290,30.5,3.6,50.0,4.1,'1111122,1111122,1111122' 
NDBC,ioos:station:NOAA.NDBC:BURL1:1,2017-05-15T15:00:00Z,28.9060,-89.4290,30.5,3.6,70.0,3.6,'1111122,1111122,1111122' 
NDBC,ioos:station:NOAA.NDBC:BURL1:1,2017-05-15T16:00:00Z,28.9060,-89.4290,30.5,4.1,50.0,4.1,'1111122,1111122,1111122' 
NDBC,ioos:station:NOAA.NDBC:BURL1:1,2017-05-15T17:00:00Z,28.9060,-89.4290,30.5,3.6,70.0,4.1,'1111122,1111122,1111122' 
NDBC,ioos:station:NOAA.NDBC:BURL1:1,2017-05-15T18:00:00Z,28.9060,-89.4290,30.5,4.1,80.0,4.1,'1111122,1111122,1111122' 
NDBC,ioos:station:NOAA.NDBC:BURL1:1,2017-05-15T19:00:00Z,28.9060,-89.4290,30.5,4.1,80.0,4.1,'1111122,1111122,1111122' 
NDBC,ioos:station:NOAA.NDBC:BURL1:1,2017-05-15T21:00:00Z,28.9060,-89.4290,30.5,3.1,90.0,3.6,'1111122,1111122,1111122' 
NDBC,ioos:station:NOAA.NDBC:BURL1:1,2017-05-15T22:00:00Z,28.9060,-89.4290,30.5,3.6,90.0,4.1,'1111122,1111122,1111122' 
NDBC,ioos:station:NOAA.NDBC:BURL1:1,2017-05-15T23:00:00Z,28.9060,-89.4290,30.5,2.6,110.0,3.1,'1111122,1111122,1111122' 
NDBC,ioos:station:NOAA.NDBC:BURL1:1,2017-05-16T00:00:00Z,28.9060,-89.4290,30.5,3.1,120.0,3.1,'1111122,1111122,1111122' 
NDBC,ioos:station:NOAA.NDBC:BURL1:1,2017-05-16T01:00:00Z,28.9060,-89.4290,30.5,4.6,100.0,4.6,'1111122,1111122,1111122' 
NDBC,ioos:station:NOAA.NDBC:BURL1:1,2017-05-16T02:00:00Z,28.9060,-89.4290,30.5,3.6,110.0,4.1,'1111122,1111122,1111122' 
NDBC,ioos:station:NOAA.NDBC:BURL1:1,2017-05-16T03:00:00Z,28.9060,-89.4290,30.5,4.1,120.0,4.1,'1111122,1111122,1111122' 
NDBC,ioos:station:NOAA.NDBC:BURL1:1,2017-05-16T06:00:00Z,28.9060,-89.4290,30.5,6.2,120.0,6.7,'1111122,1111122,1111122' 
NDBC,ioos:station:NOAA.NDBC:BURL1:1,2017-05-16T07:00:00Z,28.9060,-89.4290,30.5,5.1,140.0,5.7,'1111122,1111122,1111122' 
NDBC,ioos:station:NOAA.NDBC:BURL1:1,2017-05-16T11:00:00Z,28.9060,-89.4290,30.5,4.1,130.0,4.1,'1111122,1111122,1111122' 
NDBC,ioos:station:NOAA.NDBC:BURL1:1,2017-05-16T13:00:00Z,28.9060,-89.4290,30.5,5.1,120.0,5.1,'1111122,1111122,1111122' 
NDBC,ioos:station:NOAA.NDBC:BURL1:1,2017-05-16T14:00:00Z,28.9060,-89.4290,30.5,4.6,120.0,5.1,'1111122,1111122,1111122' 
NDBC,ioos:station:NOAA.NDBC:BURL1:1,2017-05-16T15:00:00Z,28.9060,-89.4290,30.5,6.2,120.0,6.7,'1111122,1111122,1111122' 
NDBC,ioos:station:NOAA.NDBC:BURL1:1,2017-05-16T16:00:00Z,28.9060,-89.4290,30.5,5.7,120.0,5.7,'1111122,1111122,1111122' 
NDBC,ioos:station:NOAA.NDBC:BURL1:1,2017-05-16T18:00:00Z,28.9060,-89.4290,30.5,5.1,120.0,5.7,'1111122,1111122,1111122' 
NDBC,ioos:station:NOAA.NDBC:BURL1:1,2017-05-16T19:00:00Z,28.9060,-89.4290,30.5,5.7,120.0,6.2,'1111122,1111122,1111122' 
NDBC,ioos:station:NOAA.NDBC:BURL1:1,2017-05-16T20:00:00Z,28.9060,-89.4290,30.5,6.2,120.0,6.7,'1111122,1111122,1111122' 
NDBC,ioos:station:NOAA.NDBC:BURL1:1,2017-05-16T21:00:00Z,28.9060,-89.4290,30.5,5.1,120.0,5.7,'1111122,1111122,1111122' 
NDBC,ioos:station:NOAA.NDBC:BURL1:1,2017-05-16T22:00:00Z,28.9060,-89.4290,30.5,4.6,120.0,5.1,'1111122,1111122,1111122' 
NDBC,ioos:station:NOAA.NDBC:BURL1:1,2017-05-16T23:00:00Z,28.9060,-89.4290,30.5,6.2,130.0,6.2,'1111122,1111122,1111122' 
NDBC,ioos:station:NOAA.NDBC:BURL1:1,2017-05-17T00:00:00Z,28.9060,-89.4290,30.5,6.2,120.0,6.7,'1111122,1111122,1111122' 
NDBC,ioos:station:NOAA.NDBC:BURL1:1,2017-05-17T01:00:00Z,28.9060,-89.4290,30.5,6.2,120.0,6.7,'1111122,1111122,1111122' 
NDBC,ioos:station:NOAA.NDBC:BURL1:1,2017-05-17T02:00:00Z,28.9060,-89.4290,30.5,6.7,120.0,7.2,'1111122,1111122,1111122' 
NDBC,ioos:station:NOAA.NDBC:BURL1:1,2017-05-18T14:00:00Z,28.9060,-89.4290,30.5,6.7,110.0,7.2,'1111122,1111122,1111122' 
NDBC,ioos:station:NOAA.NDBC:BURL1:1,2017-05-18T15:00:00Z,28.9060,-89.4290,30.5,7.7,120.0,8.2,'1111122,1111122,1111122' 
NDBC,ioos:station:NOAA.NDBC:BURL1:1,2017-05-18T19:00:00Z,28.9060,-89.4290,30.5,10.3,120.0,10.8,'1111122,1111122,1111122' 
NDBC,ioos:station:NOAA.NDBC:BURL1:1,2017-05-18T20:00:00Z,28.9060,-89.4290,30.5,9.8,120.0,10.3,'1111122,1111122,1111122' 
NDBC,ioos:station:NOAA.NDBC:BURL1:1,2017-05-18T21:00:00Z,28.9060,-89.4290,30.5,8.8,120.0,9.3,'1111122,1111122,1111122' 
NDBC,ioos:station:NOAA.NDBC:BURL1:1,2017-05-18T22:00:00Z,28.9060,-89.4290,30.5,7.2,110.0,7.7,'1111122,1111122,1111122' 
NDBC,ioos:station:NOAA.NDBC:BURL1:1,2017-05-18T23:00:00Z,28.9060,-89.4290,30.5,7.7,110.0,8.2,'1111122,1111122,1111122' 
NDBC,ioos:station:NOAA.NDBC:BURL1:1,2017-05-19T00:00:00Z,28.9060,-89.4290,30.5,8.2,120.0,8.8,'1111122,1111122,1111122' 
NDBC,ioos:station:NOAA.NDBC:BURL1:1,2017-05-19T01:00:00Z,28.9060,-89.4290,30.5,8.2,120.0,8.8,'1111122,1111122,1111122' 
NDBC,ioos:station:NOAA.NDBC:BURL1:1,2017-05-19T02:00:00Z,28.9060,-89.4290,30.5,8.8,120.0,9.3,'1111122,1111122,1111122' 
NDBC,ioos:station:NOAA.NDBC:BURL1:1,2017-05-19T03:00:00Z,28.9060,-89.4290,30.5,10.3,120.0,10.8,'1111122,1111122,1111122' 
NDBC,ioos:station:NOAA.NDBC:BURL1:1,2017-05-19T04:00:00Z,28.9060,-89.4290,30.5,10.3,130.0,11.3,'1111122,1111122,1111122' 
NDBC,ioos:station:NOAA.NDBC:BURL1:1,2017-05-19T05:00:00Z,28.9060,-89.4290,30.5,10.8,130.0,11.3,'1111122,1111122,1111122' 
NDBC,ioos:station:NOAA.NDBC:BURL1:1,2017-05-19T06:00:00Z,28.9060,-89.4290,30.5,8.8,130.0,9.3,'1111122,1111122,1111122' 
NDBC,ioos:station:NOAA.NDBC:BURL1:1,2017-05-19T07:00:00Z,28.9060,-89.4290,30.5,7.2,120.0,7.2,'1111122,1111122,1111122' 
NDBC,ioos:station:NOAA.NDBC:BURL1:1,2017-05-19T08:00:00Z,28.9060,-89.4290,30.5,6.2,120.0,6.7,'1111122,1111122,1111122' 
NDBC,ioos:station:NOAA.NDBC:BURL1:1,2017-05-19T09:00:00Z,28.9060,-89.4290,30.5,5.7,110.0,6.2,'1111122,1111122,1111122' 
NDBC,ioos:station:NOAA.NDBC:BURL1:1,2017-05-19T10:00:00Z,28.9060,-89.4290,30.5,9.3,120.0,9.8,'1111122,1111122,1111122' 
NDBC,ioos:station:NOAA.NDBC:BURL1:1,2017-05-19T11:00:00Z,28.9060,-89.4290,30.5,7.2,110.0,8.2,'1111122,1111122,1111122' 
NDBC,ioos:station:NOAA.NDBC:BURL1:1,2017-05-19T12:00:00Z,28.9060,-89.4290,30.5,8.2,120.0,8.8,'1111122,1111122,1111122' 
NDBC,ioos:station:NOAA.NDBC:BURL1:1,2017-05-19T13:00:00Z,28.9060,-89.4290,30.5,8.2,120.0,8.2,'1111122,1111122,1111122' 
NDBC,ioos:station:NOAA.NDBC:BURL1:1,2017-05-19T14:00:00Z,28.9060,-89.4290,30.5,6.7,110.0,7.2,'1111122,1111122,1111122' 
NDBC,ioos:station:NOAA.NDBC:BURL1:1,2017-05-19T15:00:00Z,28.9060,-89.4290,30.5,7.2,100.0,8.2,'1111122,1111122,1111122' 
NDBC,ioos:station:NOAA.NDBC:BURL1:1,2017-05-19T16:00:00Z,28.9060,-89.4290,30.5,6.7,100.0,7.2,'1111122,1111122,1111122' 
NDBC,ioos:station:NOAA.NDBC:BURL1:1,2017-05-19T17:00:00Z,28.9060,-89.4290,30.5,7.7,110.0,8.2,'1111122,1111122,1111122' 
NDBC,ioos:station:NOAA.NDBC:BURL1:1,2017-05-19T18:00:00Z,28.9060,-89.4290,30.5,7.7,110.0,8.2,'1111122,1111122,1111122' 
NDBC,ioos:station:NOAA.NDBC:BURL1:1,2017-05-19T19:00:00Z,28.9060,-89.4290,30.5,8.2,110.0,9.3,'1111122,1111122,1111122' 
NDBC,ioos:station:NOAA.NDBC:BURL1:1,2017-05-19T20:00:00Z,28.9060,-89.4290,30.5,7.7,120.0,8.8,'1111122,1111122,1111122' 
NDBC,ioos:station:NOAA.NDBC:BURL1:1,2017-05-19T21:00:00Z,28.9060,-89.4290,30.5,7.2,110.0,7.7,'1111122,1111122,1111122' 
NDBC,ioos:station:NOAA.NDBC:BURL1:1,2017-05-19T22:00:00Z,28.9060,-89.4290,30.5,7.2,100.0,7.7,'1111122,1111122,1111122' 
NDBC,ioos:station:NOAA.NDBC:BURL1:1,2017-05-19T23:00:00Z,28.9060,-89.4290,30.5,7.7,100.0,8.2,'1111122,1111122,1111122' 
NDBC,ioos:station:NOAA.NDBC:BURL1:1,2017-05-20T00:00:00Z,28.9060,-89.4290,30.5,7.7,110.0,8.2,'1111122,1111122,1111122' 
NDBC,ioos:station:NOAA.NDBC:BURL1:1,2017-05-20T01:00:00Z,28.9060,-89.4290,30.5,7.7,110.0,7.7,'1111122,1111122,1111122' 
NDBC,ioos:station:NOAA.NDBC:BURL1:1,2017-05-20T02:00:00Z,28.9060,-89.4290,30.5,9.3,110.0,9.8,'1111122,1111122,1111122' 
NDBC,ioos:station:NOAA.NDBC:BURL1:1,2017-05-20T03:00:00Z,28.9060,-89.4290,30.5,9.3,110.0,9.8,'1111122,1111122,1111122' 
NDBC,ioos:station:NOAA.NDBC:BURL1:1,2017-05-20T05:00:00Z,28.9060,-89.4290,30.5,8.2,120.0,8.8,'1111122,1111122,1111122' 
NDBC,ioos:station:NOAA.NDBC:BURL1:1,2017-05-20T06:00:00Z,28.9060,-89.4290,30.5,6.7,120.0,7.2,'1111122,1111122,1111122' 
NDBC,ioos:station:NOAA.NDBC:BURL1:1,2017-05-20T07:00:00Z,28.9060,-89.4290,30.5,6.7,130.0,7.2,'1111122,1111122,1111122' 
NDBC,ioos:station:NOAA.NDBC:BURL1:1,2017-05-20T08:00:00Z,28.9060,-89.4290,30.5,6.2,120.0,7.2,'1111122,1111122,1111122' 
NDBC,ioos:station:NOAA.NDBC:BURL1:1,2017-05-20T09:00:00Z,28.9060,-89.4290,30.5,7.2,130.0,8.2,'1111122,1111122,1111122' 
NDBC,ioos:station:NOAA.NDBC:BURL1:1,2017-05-20T10:00:00Z,28.9060,-89.4290,30.5,7.7,120.0,8.2,'1111122,1111122,1111122' 
NDBC,ioos:station:NOAA.NDBC:BURL1:1,2017-05-20T11:00:00Z,28.9060,-89.4290,30.5,8.2,120.0,8.8,'1111122,1111122,1111122' 
NDBC,ioos:station:NOAA.NDBC:BURL1:1,2017-05-20T12:00:00Z,28.9060,-89.4290,30.5,8.8,130.0,9.8,'1111122,1111122,1111122' 
NDBC,ioos:station:NOAA.NDBC:BURL1:1,2017-05-20T13:00:00Z,28.9060,-89.4290,30.5,7.2,130.0,8.2,'1111122,1111122,1111122' 
NDBC,ioos:station:NOAA.NDBC:BURL1:1,2017-05-20T14:00:00Z,28.9060,-89.4290,30.5,7.2,130.0,7.7,'1111122,1111122,1111122' 
NDBC,ioos:station:NOAA.NDBC:BURL1:1,2017-05-20T15:00:00Z,28.9060,-89.4290,30.5,6.2,120.0,6.7,'1111122,1111122,1111122' 
NDBC,ioos:station:NOAA.NDBC:BURL1:1,2017-05-20T16:00:00Z,28.9060,-89.4290,30.5,6.2,120.0,6.7,'1111122,1111122,1111122' 
NDBC,ioos:station:NOAA.NDBC:BURL1:1,2017-05-20T17:00:00Z,28.9060,-89.4290,30.5,6.2,120.0,6.7,'1111122,1111122,1111122' 
NDBC,ioos:station:NOAA.NDBC:BURL1:1,2017-05-20T18:00:00Z,28.9060,-89.4290,30.5,7.2,120.0,7.7,'1111122,1111122,1111122' 
NDBC,ioos:station:NOAA.NDBC:BURL1:1,2017-05-20T19:00:00Z,28.9060,-89.4290,30.5,6.2,140.0,6.7,'1111122,1111122,1111122' 
NDBC,ioos:station:NOAA.NDBC:BURL1:1,2017-05-20T20:00:00Z,28.9060,-89.4290,30.5,6.2,140.0,6.7,'1111122,1111122,1111122' 
NDBC,ioos:station:NOAA.NDBC:BURL1:1,2017-05-20T21:00:00Z,28.9060,-89.4290,30.5,5.7,180.0,6.2,'1111122,1111122,1111122' 
NDBC,ioos:station:NOAA.NDBC:BURL1:1,2017-05-20T22:00:00Z,28.9060,-89.4290,30.5,7.2,170.0,7.7,'1111122,1111122,1111122' 
NDBC,ioos:station:NOAA.NDBC:BURL1:1,2017-05-20T23:00:00Z,28.9060,-89.4290,30.5,6.7,170.0,7.2,'1111122,1111122,1111122' 
NDBC,ioos:station:NOAA.NDBC:BURL1:1,2017-05-21T00:00:00Z,28.9060,-89.4290,30.5,7.7,160.0,8.2,'1111122,1111122,1111122' 
NDBC,ioos:station:NOAA.NDBC:BURL1:1,2017-05-21T01:00:00Z,28.9060,-89.4290,30.5,8.2,160.0,8.8,'1111122,1111122,1111122' 
NDBC,ioos:station:NOAA.NDBC:BURL1:1,2017-05-21T02:00:00Z,28.9060,-89.4290,30.5,6.2,180.0,6.7,'1111122,1111122,1111122' 
NDBC,ioos:station:NOAA.NDBC:BURL1:1,2017-05-21T03:00:00Z,28.9060,-89.4290,30.5,4.6,180.0,4.6,'1111122,1111122,1111122' 
NDBC,ioos:station:NOAA.NDBC:BURL1:1,2017-05-21T04:00:00Z,28.9060,-89.4290,30.5,5.7,190.0,6.2,'1111122,1111122,1111122' 
NDBC,ioos:station:NOAA.NDBC:BURL1:1,2017-05-21T05:00:00Z,28.9060,-89.4290,30.5,6.2,190.0,6.7,'1111122,1111122,1111122' 
NDBC,ioos:station:NOAA.NDBC:BURL1:1,2017-05-21T06:00:00Z,28.9060,-89.4290,30.5,5.1,200.0,5.1,'1111122,1111122,1111122' 
NDBC,ioos:station:NOAA.NDBC:BURL1:1,2017-05-21T07:00:00Z,28.9060,-89.4290,30.5,5.1,210.0,5.1,'1111122,1111122,1111122' 
NDBC,ioos:station:NOAA.NDBC:BURL1:1,2017-05-21T08:00:00Z,28.9060,-89.4290,30.5,6.2,190.0,6.7,'1111122,1111122,1111122' 
NDBC,ioos:station:NOAA.NDBC:BURL1:1,2017-05-21T09:00:00Z,28.9060,-89.4290,30.5,5.7,190.0,6.2,'1111122,1111122,1111122' 
NDBC,ioos:station:NOAA.NDBC:BURL1:1,2017-05-21T10:00:00Z,28.9060,-89.4290,30.5,4.6,190.0,4.6,'1111122,1111122,1111122' 
NDBC,ioos:station:NOAA.NDBC:BURL1:1,2017-05-21T11:00:00Z,28.9060,-89.4290,30.5,3.6,180.0,3.6,'1111122,1111122,1111122' 
NDBC,ioos:station:NOAA.NDBC:BURL1:1,2017-05-21T12:00:00Z,28.9060,-89.4290,30.5,2.1,190.0,2.1,'1111122,1111122,1111122' 
NDBC,ioos:station:NOAA.NDBC:BURL1:1,2017-05-21T13:00:00Z,28.9060,-89.4290,30.5,1.5,170.0,1.5,'1111122,1111122,1111122' 
NDBC,ioos:station:NOAA.NDBC:BURL1:1,2017-05-21T14:00:00Z,28.9060,-89.4290,30.5,4.1,110.0,4.1,'1111122,1111122,1111122' 
NDBC,ioos:station:NOAA.NDBC:BURL1:1,2017-05-21T15:00:00Z,28.9060,-89.4290,30.5,11.3,110.0,13.4,'1111122,1111122,1111122' 
NDBC,ioos:station:NOAA.NDBC:BURL1:1,2017-05-21T16:00:00Z,28.9060,-89.4290,30.5,13.9,120.0,14.4,'1111122,1111122,1111122' 
NDBC,ioos:station:NOAA.NDBC:BURL1:1,2017-05-21T17:00:00Z,28.9060,-89.4290,30.5,11.8,110.0,12.9,'1111122,1111122,1111122' 
NDBC,ioos:station:NOAA.NDBC:BURL1:1,2017-05-21T18:00:00Z,28.9060,-89.4290,30.5,10.8,120.0,11.3,'1111122,1111122,1111122' 
NDBC,ioos:station:NOAA.NDBC:BURL1:1,2017-05-21T19:00:00Z,28.9060,-89.4290,30.5,6.7,120.0,8.2,'1111122,1111122,1111122' 
NDBC,ioos:station:NOAA.NDBC:BURL1:1,2017-05-21T20:00:00Z,28.9060,-89.4290,30.5,7.7,30.0,8.8,'1111122,1111122,1111122' 
NDBC,ioos:station:NOAA.NDBC:BURL1:1,2017-05-21T21:00:00Z,28.9060,-89.4290,30.5,12.9,120.0,13.9,'1111122,1111122,1111122' 